Time,TemperatureF,DewpointF,PressureIn,WindDirection,WindDirectionDegrees,WindSpeedMPH,WindSpeedGustMPH,Humidity,HourlyPrecipIn,Conditions,Clouds,dailyrainin,SoftwareType,DateUTC
2013-02-18 00:00:00,25.4,16.0,30.15,South,173,3.9,9.2,67,0.00,CLR,,0.00,WeatherDisplay:10.37,2013-02-18 05:00:00,
2013-02-18 00:05:00,25.5,16.1,30.15,SE,145,2.9,5.8,67,0.00,CLR,,0.00,WeatherDisplay:10.37,2013-02-18 05:05:00,
2013-02-18 00:10:00,25.4,16.0,30.15,SSE,158,2.9,5.8,67,0.00,CLR,,0.00,WeatherDisplay:10.37,2013-02-18 05:10:00,
2013-02-18 00:15:00,25.3,16.2,30.15,SSE,150,1.6,5.0,68,0.00,CLR,,0.00,WeatherDisplay:10.37,2013-02-18 05:15:00,
2013-02-18 00:20:00,25.3,15.9,30.15,SE,145,2.1,3.5,67,0.00,CLR,,0.00,WeatherDisplay:10.37,2013-02-18 05:20:00,
2013-02-18 00:25:00,25.2,15.8,30.14,SE,142,3.9,5.8,67,0.00,CLR,,0.00,WeatherDisplay:10.37,2013-02-18 05:25:00,
2013-02-18 00:30:00,25.2,15.8,30.14,SSE,147,1.9,4.6,67,0.00,CLR,,0.00,WeatherDisplay:10.37,2013-02-18 05:30:00,
2013-02-18 00:35:00,25.2,15.8,30.14,SE,145,1.0,6.9,67,0.00,CLR,,0.00,WeatherDisplay:10.37,2013-02-18 05:35:00,
2013-02-18 00:40:00,25.1,15.7,30.14,SE,139,3.2,4.6,67,0.00,CLR,,0.00,WeatherDisplay:10.37,2013-02-18 05:40:00,
2013-02-18 00:45:00,25.2,15.8,30.14,SE,140,2.2,3.5,67,0.00,CLR,,0.00,WeatherDisplay:10.37,2013-02-18 05:45:00,
2013-02-18 00:50:00,25.1,16.0,30.14,SE,144,1.1,3.5,68,0.00,CLR,,0.00,WeatherDisplay:10.37,2013-02-18 05:50:00,
2013-02-18 00:55:00,24.9,15.8,30.14,SE,146,2.0,5.8,68,0.00,CLR,,0.00,WeatherDisplay:10.37,2013-02-18 05:55:00,
2013-02-18 01:00:00,24.8,16.1,30.14,SSE,152,1.5,4.0,69,0.00,CLR,,0.00,WeatherDisplay:10.37,2013-02-18 06:00:00,
2013-02-18 01:05:00,24.9,15.8,30.13,SE,140,2.2,4.6,68,0.00,CLR,,0.00,WeatherDisplay:10.37,2013-02-18 06:05:00,
2013-02-18 01:10:00,24.9,15.8,30.13,SE,140,4.6,5.8,68,0.00,CLR,,0.00,WeatherDisplay:10.37,2013-02-18 06:10:00,
2013-02-18 01:15:00,25.1,15.7,30.12,SE,139,5.4,10.4,67,0.00,CLR,,0.00,WeatherDisplay:10.37,2013-02-18 06:15:00,
2013-02-18 01:20:00,25.2,15.8,30.12,SE,146,3.8,6.9,67,0.00,CLR,,0.00,WeatherDisplay:10.37,2013-02-18 06:20:00,
2013-02-18 01:25:00,25.2,15.8,30.11,SSE,157,5.9,10.4,67,0.00,CLR,,0.00,WeatherDisplay:10.37,2013-02-18 06:25:00,
2013-02-18 01:30:00,25.2,15.8,30.12,SE,133,3.0,9.2,67,0.00,CLR,,0.00,WeatherDisplay:10.37,2013-02-18 06:30:00,
2013-02-18 01:35:00,25.1,15.7,30.12,SSE,155,3.0,5.8,67,0.00,CLR,,0.00,WeatherDisplay:10.37,2013-02-18 06:35:00,
2013-02-18 01:40:00,25.2,17.4,30.12,SSE,149,4.6,6.0,72,0.00,CLR,,0.00,WeatherDisplay:10.37,2013-02-18 06:40:00,
2013-02-18 01:45:00,25.2,15.4,30.12,SSE,151,5.6,11.5,66,0.00,CLR,,0.00,WeatherDisplay:10.37,2013-02-18 06:45:00,
2013-02-18 01:50:00,25.2,15.4,30.12,SE,142,3.7,5.8,66,0.00,CLR,,0.00,WeatherDisplay:10.37,2013-02-18 06:50:00,
2013-02-18 01:55:00,25.3,15.5,30.12,SSE,156,5.6,5.6,66,0.00,CLR,,0.00,WeatherDisplay:10.37,2013-02-18 06:55:00,
2013-02-18 02:00:00,25.3,15.5,30.11,SE,138,3.3,6.9,66,0.00,CLR,,0.00,WeatherDisplay:10.37,2013-02-18 07:00:00,
2013-02-18 02:05:00,25.2,15.8,30.11,SSE,148,3.6,7.0,67,0.00,CLR,,0.00,WeatherDisplay:10.37,2013-02-18 07:05:00,
2013-02-18 02:10:00,25.3,15.5,30.11,SE,146,4.7,10.0,66,0.00,CLR,,0.00,WeatherDisplay:10.37,2013-02-18 07:10:00,
2013-02-18 02:15:00,25.2,15.8,30.11,SE,146,4.2,8.1,67,0.00,CLR,,0.00,WeatherDisplay:10.37,2013-02-18 07:15:00,
2013-02-18 02:20:00,25.2,15.4,30.11,SE,142,4.7,11.5,66,0.00,CLR,,0.00,WeatherDisplay:10.37,2013-02-18 07:20:00,
2013-02-18 02:25:00,25.3,15.5,30.11,SE,145,4.1,9.2,66,0.00,CLR,,0.00,WeatherDisplay:10.37,2013-02-18 07:25:00,
2013-02-18 02:30:00,25.2,15.4,30.10,SE,134,9.6,13.8,66,0.00,CLR,,0.00,WeatherDisplay:10.37,2013-02-18 07:30:00,
2013-02-18 02:35:00,25.3,15.5,30.10,SSE,148,6.9,11.5,66,0.00,CLR,,0.00,WeatherDisplay:10.37,2013-02-18 07:35:00,
2013-02-18 02:40:00,25.3,15.5,30.10,SSE,158,6.6,10.4,66,0.00,CLR,,0.00,WeatherDisplay:10.37,2013-02-18 07:40:00,
2013-02-18 02:45:00,25.3,15.5,30.10,SSE,162,5.4,10.4,66,0.00,CLR,,0.00,WeatherDisplay:10.37,2013-02-18 07:45:00,
2013-02-18 02:50:00,25.2,15.4,30.09,SE,142,3.4,11.5,66,0.00,CLR,,0.00,WeatherDisplay:10.37,2013-02-18 07:50:00,
2013-02-18 02:55:00,25.2,15.8,30.09,SSE,148,4.5,4.6,67,0.00,CLR,,0.00,WeatherDisplay:10.37,2013-02-18 07:55:00,
2013-02-18 03:00:00,25.4,15.6,30.09,SSE,153,6.1,11.5,66,0.00,CLR,,0.00,WeatherDisplay:10.37,2013-02-18 08:00:00,
2013-02-18 03:05:00,25.4,15.6,30.08,SE,139,3.8,6.0,66,0.00,CLR,,0.00,WeatherDisplay:10.37,2013-02-18 08:05:00,
2013-02-18 03:10:00,25.4,16.0,30.09,SE,130,4.5,7.0,67,0.00,CLR,,0.00,WeatherDisplay:10.37,2013-02-18 08:10:00,
2013-02-18 03:15:00,25.4,16.0,30.08,SE,139,3.1,6.9,67,0.00,CLR,,0.00,WeatherDisplay:10.37,2013-02-18 08:15:00,
2013-02-18 03:20:00,25.4,16.0,30.08,SSE,155,4.7,11.5,67,0.00,CLR,,0.00,WeatherDisplay:10.37,2013-02-18 08:20:00,
2013-02-18 03:25:00,25.3,15.5,30.08,SSE,148,3.9,11.5,66,0.00,CLR,,0.00,WeatherDisplay:10.37,2013-02-18 08:25:00,
2013-02-18 03:30:00,25.3,15.9,30.08,SSE,151,4.9,6.9,67,0.00,CLR,,0.00,WeatherDisplay:10.37,2013-02-18 08:30:00,
2013-02-18 03:35:00,25.4,16.0,30.08,SSE,150,4.6,10.4,67,0.00,CLR,,0.00,WeatherDisplay:10.37,2013-02-18 08:35:00,
2013-02-18 03:40:00,25.4,16.0,30.07,SSE,155,4.7,10.4,67,0.00,CLR,,0.00,WeatherDisplay:10.37,2013-02-18 08:40:00,
2013-02-18 03:45:00,25.4,16.0,30.07,SE,143,6.0,11.5,67,0.00,CLR,,0.00,WeatherDisplay:10.37,2013-02-18 08:45:00,
2013-02-18 03:50:00,25.5,15.7,30.06,SE,142,4.9,9.2,66,0.00,CLR,,0.00,WeatherDisplay:10.37,2013-02-18 08:50:00,
2013-02-18 03:55:00,25.6,15.8,30.06,SSE,148,3.7,11.5,66,0.00,CLR,,0.00,WeatherDisplay:10.37,2013-02-18 08:55:00,
2013-02-18 04:00:00,25.6,16.2,30.06,SE,146,5.6,9.2,67,0.00,CLR,,0.00,WeatherDisplay:10.37,2013-02-18 09:00:00,
2013-02-18 04:05:00,25.5,16.1,30.06,SSE,157,6.4,9.2,67,0.00,CLR,,0.00,WeatherDisplay:10.37,2013-02-18 09:05:00,
2013-02-18 04:10:00,25.6,16.2,30.06,SSE,159,6.4,10.4,67,0.00,CLR,,0.00,WeatherDisplay:10.37,2013-02-18 09:10:00,
2013-02-18 04:15:00,25.6,15.8,30.05,SSE,151,8.1,13.8,66,0.00,CLR,,0.00,WeatherDisplay:10.37,2013-02-18 09:15:00,
2013-02-18 04:20:00,25.6,16.2,30.04,SE,144,6.4,11.5,67,0.00,CLR,,0.00,WeatherDisplay:10.37,2013-02-18 09:20:00,
2013-02-18 04:25:00,25.7,15.9,30.04,SSE,148,5.9,12.7,66,0.00,CLR,,0.00,WeatherDisplay:10.37,2013-02-18 09:25:00,
2013-02-18 04:30:00,25.8,16.0,30.03,SSE,148,7.0,12.7,66,0.00,CLR,,0.00,WeatherDisplay:10.37,2013-02-18 09:30:00,
2013-02-18 04:35:00,26.0,16.2,30.03,SSE,158,7.2,16.1,66,0.00,CLR,,0.00,WeatherDisplay:10.37,2013-02-18 09:35:00,
2013-02-18 04:40:00,26.1,16.3,30.03,SE,142,5.3,11.5,66,0.00,CLR,,0.00,WeatherDisplay:10.37,2013-02-18 09:40:00,
2013-02-18 04:45:00,26.1,16.3,30.03,SE,131,7.8,17.3,66,0.00,CLR,,0.00,WeatherDisplay:10.37,2013-02-18 09:45:00,
2013-02-18 04:50:00,26.2,16.4,30.02,SE,131,5.1,13.8,66,0.00,CLR,,0.00,WeatherDisplay:10.37,2013-02-18 09:50:00,
2013-02-18 04:55:00,26.3,16.1,30.02,SE,136,7.1,13.0,65,0.00,CLR,,0.00,WeatherDisplay:10.37,2013-02-18 09:55:00,
2013-02-18 05:00:00,26.4,16.2,30.02,SE,136,8.6,13.0,65,0.00,CLR,,0.00,WeatherDisplay:10.37,2013-02-18 10:00:00,
2013-02-18 05:05:00,26.3,16.5,30.02,SSE,157,4.8,11.5,66,0.00,CLR,,0.00,WeatherDisplay:10.37,2013-02-18 10:05:00,
2013-02-18 05:10:00,26.3,16.5,30.02,SSE,161,4.2,9.2,66,0.00,CLR,,0.00,WeatherDisplay:10.37,2013-02-18 10:10:00,
2013-02-18 05:15:00,26.5,16.7,30.02,SSE,152,5.4,10.4,66,0.00,CLR,,0.00,WeatherDisplay:10.37,2013-02-18 10:15:00,
2013-02-18 05:20:00,26.5,16.7,30.01,SE,127,4.4,10.4,66,0.00,CLR,,0.00,WeatherDisplay:10.37,2013-02-18 10:20:00,
2013-02-18 05:25:00,26.8,16.6,30.01,South,184,4.9,15.0,65,0.00,CLR,,0.00,WeatherDisplay:10.37,2013-02-18 10:25:00,
2013-02-18 05:30:00,27.0,16.8,30.01,ESE,121,6.5,16.1,65,0.00,CLR,,0.00,WeatherDisplay:10.37,2013-02-18 10:30:00,
2013-02-18 05:35:00,27.2,17.0,30.00,SE,141,7.4,9.2,65,0.00,CLR,,0.00,WeatherDisplay:10.37,2013-02-18 10:35:00,
2013-02-18 05:40:00,27.3,16.7,30.00,SE,140,7.5,11.5,64,0.00,CLR,,0.00,WeatherDisplay:10.37,2013-02-18 10:40:00,
2013-02-18 05:45:00,27.2,17.0,29.99,SE,136,6.3,11.5,65,0.00,CLR,,0.00,WeatherDisplay:10.37,2013-02-18 10:45:00,
2013-02-18 05:50:00,27.2,17.0,29.99,SSE,150,8.2,17.3,65,0.00,CLR,,0.00,WeatherDisplay:10.37,2013-02-18 10:50:00,
2013-02-18 05:55:00,27.2,17.0,29.99,SSE,157,7.2,11.5,65,0.00,CLR,,0.00,WeatherDisplay:10.37,2013-02-18 10:55:00,
2013-02-18 06:00:00,27.2,17.3,29.99,SE,138,5.8,9.2,66,0.00,CLR,,0.00,WeatherDisplay:10.37,2013-02-18 11:00:00,
2013-02-18 06:05:00,27.2,16.9,29.98,SSE,151,8.0,16.0,65,0.00,CLR,CLR,0.00,WeatherDisplay:10.37,2013-02-18 11:05:00,
2013-02-18 06:11:00,27.0,17.1,29.98,SSE,148,7.6,13.8,66,0.00,CLR,,0.00,WeatherDisplay:10.37,2013-02-18 11:11:00,
2013-02-18 06:16:00,26.9,17.0,29.98,SE,140,7.6,12.0,66,0.00,CLR,,0.00,WeatherDisplay:10.37,2013-02-18 11:16:00,
2013-02-18 06:21:00,26.9,17.4,29.97,South,177,6.0,11.5,67,0.00,CLR,,0.00,WeatherDisplay:10.37,2013-02-18 11:21:00,
2013-02-18 06:26:00,27.1,17.2,29.97,SSE,156,8.4,11.5,66,0.00,CLR,,0.00,WeatherDisplay:10.37,2013-02-18 11:26:00,
2013-02-18 06:31:00,27.3,17.4,29.97,SSE,155,3.8,5.8,66,0.00,CLR,,0.00,WeatherDisplay:10.37,2013-02-18 11:31:00,
2013-02-18 06:36:00,27.4,17.5,29.97,SSE,157,5.5,11.5,66,0.00,CLR,,0.00,WeatherDisplay:10.37,2013-02-18 11:36:00,
2013-02-18 06:41:00,27.5,17.6,29.97,SSE,165,6.5,11.5,66,0.00,CLR,,0.00,WeatherDisplay:10.37,2013-02-18 11:41:00,
2013-02-18 06:46:00,27.4,17.9,29.96,SSE,148,7.0,10.4,67,0.00,CLR,,0.00,WeatherDisplay:10.37,2013-02-18 11:46:00,
2013-02-18 06:51:00,27.7,17.8,29.96,SE,145,6.4,12.7,66,0.00,CLR,,0.00,WeatherDisplay:10.37,2013-02-18 11:51:00,
2013-02-18 06:56:00,27.7,17.8,29.96,SSE,153,4.6,13.8,66,0.00,CLR,,0.00,WeatherDisplay:10.37,2013-02-18 11:56:00,
2013-02-18 07:01:00,27.7,18.2,29.96,SSE,167,5.1,10.4,67,0.00,CLR,,0.00,WeatherDisplay:10.37,2013-02-18 12:01:00,
2013-02-18 07:07:00,27.8,18.3,29.96,SSE,161,5.9,10.4,67,0.00,CLR,,0.00,WeatherDisplay:10.37,2013-02-18 12:07:00,
2013-02-18 07:12:00,28.1,18.5,29.95,SSE,163,5.3,10.4,67,0.00,CLR,,0.00,WeatherDisplay:10.37,2013-02-18 12:12:00,
2013-02-18 07:17:00,28.2,18.6,29.95,SE,140,5.2,9.2,67,0.00,CLR,,0.00,WeatherDisplay:10.37,2013-02-18 12:17:00,
2013-02-18 07:22:00,28.4,18.5,29.95,SE,145,7.4,10.4,66,0.00,CLR,,0.00,WeatherDisplay:10.37,2013-02-18 12:22:00,
2013-02-18 07:27:00,28.7,18.8,29.95,SSE,153,8.7,11.5,66,0.00,CLR,,0.00,WeatherDisplay:10.37,2013-02-18 12:27:00,
2013-02-18 07:32:00,28.8,18.9,29.94,SSE,167,5.2,9.2,66,0.00,CLR,,0.00,WeatherDisplay:10.37,2013-02-18 12:32:00,
2013-02-18 07:38:00,28.9,19.0,29.94,SSE,155,9.8,15.0,66,0.00,CLR,,0.00,WeatherDisplay:10.37,2013-02-18 12:38:00,
2013-02-18 07:43:00,29.1,19.2,29.94,South,171,6.0,10.4,66,0.00,CLR,,0.00,WeatherDisplay:10.37,2013-02-18 12:43:00,
2013-02-18 07:48:00,29.4,19.1,29.94,SSE,167,6.5,10.4,65,0.00,CLR,,0.00,WeatherDisplay:10.37,2013-02-18 12:48:00,
2013-02-18 07:53:00,29.5,19.2,29.94,SSE,149,9.9,13.8,65,0.00,CLR,,0.00,WeatherDisplay:10.37,2013-02-18 12:53:00,
2013-02-18 07:58:00,29.7,19.4,29.93,SE,146,9.6,15.0,65,0.00,CLR,,0.00,WeatherDisplay:10.37,2013-02-18 12:58:00,
2013-02-18 08:03:00,29.9,19.6,29.93,SE,146,10.1,17.3,65,0.00,CLR,,0.00,WeatherDisplay:10.37,2013-02-18 13:03:00,
2013-02-18 08:08:00,30.1,19.7,29.94,South,175,5.4,10.4,65,0.00,CLR,,0.00,WeatherDisplay:10.37,2013-02-18 13:08:00,
2013-02-18 08:13:00,30.2,19.8,29.93,South,171,6.6,11.5,65,0.00,CLR,,0.00,WeatherDisplay:10.37,2013-02-18 13:13:00,
2013-02-18 08:18:00,30.4,20.0,29.93,SSW,201,11.8,16.1,65,0.00,CLR,,0.00,WeatherDisplay:10.37,2013-02-18 13:18:00,
2013-02-18 08:23:00,30.7,20.3,29.93,South,169,7.6,11.5,65,0.00,CLR,,0.00,WeatherDisplay:10.37,2013-02-18 13:23:00,
2013-02-18 08:28:00,30.8,20.4,29.93,South,173,4.8,13.0,65,0.00,CLR,,0.00,WeatherDisplay:10.37,2013-02-18 13:28:00,
2013-02-18 08:33:00,31.1,20.7,29.93,South,169,7.9,12.7,65,0.00,CLR,,0.00,WeatherDisplay:10.37,2013-02-18 13:33:00,
2013-02-18 08:38:00,31.4,21.0,29.93,SSE,159,5.8,11.5,65,0.00,CLR,,0.00,WeatherDisplay:10.37,2013-02-18 13:38:00,
2013-02-18 08:43:00,31.7,21.3,29.93,SSE,165,5.9,13.8,65,0.00,CLR,,0.00,WeatherDisplay:10.37,2013-02-18 13:43:00,
2013-02-18 08:49:00,31.8,21.4,29.92,South,171,6.3,10.4,65,0.00,CLR,,0.00,WeatherDisplay:10.37,2013-02-18 13:49:00,
2013-02-18 08:54:00,32.0,21.6,29.92,SSE,148,5.6,10.4,65,0.00,CLR,,0.00,WeatherDisplay:10.37,2013-02-18 13:54:00,
2013-02-18 08:59:00,32.3,21.8,29.92,South,169,8.2,11.5,65,0.00,CLR,,0.00,WeatherDisplay:10.37,2013-02-18 13:59:00,
2013-02-18 09:04:00,32.8,22.3,29.92,SSE,168,5.6,12.7,65,0.00,CLR,,0.00,WeatherDisplay:10.37,2013-02-18 14:04:00,
2013-02-18 09:09:00,33.2,22.7,29.91,SSE,162,7.4,15.0,65,0.00,CLR,,0.00,WeatherDisplay:10.37,2013-02-18 14:09:00,
2013-02-18 09:14:00,33.7,22.8,29.91,South,184,8.9,12.7,64,0.00,CLR,,0.00,WeatherDisplay:10.37,2013-02-18 14:14:00,
2013-02-18 09:19:00,34.3,23.7,29.91,South,171,6.2,11.5,65,0.00,CLR,,0.00,WeatherDisplay:10.37,2013-02-18 14:19:00,
2013-02-18 09:24:00,34.7,23.8,29.91,SSE,162,9.7,15.0,64,0.00,CLR,,0.00,WeatherDisplay:10.37,2013-02-18 14:24:00,
2013-02-18 09:29:00,35.1,24.1,29.90,South,179,10.9,17.3,64,0.00,CLR,,0.00,WeatherDisplay:10.37,2013-02-18 14:29:00,
2013-02-18 09:34:00,35.5,24.5,29.90,South,188,13.7,19.6,64,0.00,CLR,,0.00,WeatherDisplay:10.37,2013-02-18 14:34:00,
2013-02-18 09:39:00,36.1,25.1,29.90,South,182,9.1,19.6,64,0.00,CLR,,0.00,WeatherDisplay:10.37,2013-02-18 14:39:00,
2013-02-18 09:44:00,36.9,25.5,29.90,South,173,7.8,13.8,63,0.00,CLR,,0.00,WeatherDisplay:10.37,2013-02-18 14:44:00,
2013-02-18 09:49:00,36.7,25.3,29.90,SSW,213,4.1,6.9,63,0.00,CLR,,0.00,WeatherDisplay:10.37,2013-02-18 14:49:00,
2013-02-18 09:54:00,36.9,25.5,29.90,South,189,8.7,16.1,63,0.00,CLR,,0.00,WeatherDisplay:10.37,2013-02-18 14:54:00,
2013-02-18 09:59:00,37.3,25.8,29.89,South,179,10.6,16.1,63,0.00,CLR,,0.00,WeatherDisplay:10.37,2013-02-18 14:59:00,
2013-02-18 10:04:00,37.8,26.3,29.89,South,171,6.4,10.4,63,0.00,CLR,,0.00,WeatherDisplay:10.37,2013-02-18 15:04:00,
2013-02-18 10:09:00,38.0,26.5,29.89,South,173,8.5,20.7,63,0.00,CLR,,0.00,WeatherDisplay:10.37,2013-02-18 15:09:00,
2013-02-18 10:14:00,38.4,26.9,29.89,South,176,9.4,19.6,63,0.00,CLR,,0.00,WeatherDisplay:10.37,2013-02-18 15:14:00,
2013-02-18 10:19:00,38.6,27.1,29.89,SSE,148,11.5,19.0,63,0.00,CLR,,0.00,WeatherDisplay:10.37,2013-02-18 15:19:00,
2013-02-18 10:25:00,39.0,27.1,29.89,SSE,158,7.8,13.8,62,0.00,CLR,,0.00,WeatherDisplay:10.37,2013-02-18 15:25:00,
2013-02-18 10:30:00,39.5,27.5,29.88,SSE,164,10.1,13.8,62,0.00,CLR,,0.00,WeatherDisplay:10.37,2013-02-18 15:30:00,
2013-02-18 10:35:00,40.1,28.1,29.88,SSE,168,10.1,16.1,62,0.00,CLR,,0.00,WeatherDisplay:10.37,2013-02-18 15:35:00,
2013-02-18 10:40:00,40.3,28.3,29.87,SSW,192,7.8,16.1,62,0.00,CLR,,0.00,WeatherDisplay:10.37,2013-02-18 15:40:00,
2013-02-18 10:45:00,40.9,28.9,29.87,SSE,162,8.7,15.0,62,0.00,CLR,,0.00,WeatherDisplay:10.37,2013-02-18 15:45:00,
2013-02-18 10:50:00,41.3,29.3,29.87,SSW,192,5.4,9.0,62,0.00,CLR,,0.00,WeatherDisplay:10.37,2013-02-18 15:50:00,
2013-02-18 10:55:00,41.8,29.7,29.87,South,171,9.6,9.6,62,0.00,CLR,,0.00,WeatherDisplay:10.37,2013-02-18 15:55:00,
2013-02-18 11:00:00,42.2,30.1,29.86,South,176,5.8,21.9,62,0.00,CLR,,0.00,WeatherDisplay:10.37,2013-02-18 16:00:00,
2013-02-18 11:05:00,42.6,30.5,29.87,South,178,6.0,12.0,62,0.00,CLR,CLR,0.00,WeatherDisplay:10.37,2013-02-18 16:05:00,
2013-02-18 11:10:00,43.1,31.0,29.86,SSE,167,6.7,11.5,62,0.00,CLR,,0.00,WeatherDisplay:10.37,2013-02-18 16:10:00,
2013-02-18 11:15:00,43.3,31.1,29.86,South,186,2.0,6.0,62,0.00,CLR,,0.00,WeatherDisplay:10.37,2013-02-18 16:15:00,
2013-02-18 11:20:00,43.4,31.7,29.86,South,180,0.0,20.0,63,0.00,CLR,CLR,0.00,WeatherDisplay:10.37,2013-02-18 16:20:00,
2013-02-18 11:25:00,44.2,32.0,29.85,SSE,167,0.1,2.0,62,0.00,CLR,,0.00,WeatherDisplay:10.37,2013-02-18 16:25:00,
2013-02-18 11:30:00,44.8,32.2,29.85,South,180,8.0,15.0,61,0.00,CLR,CLR,0.00,WeatherDisplay:10.37,2013-02-18 16:30:00,
2013-02-18 11:36:00,45.2,32.5,29.85,South,191,7.2,12.7,61,0.00,CLR,,0.00,WeatherDisplay:10.37,2013-02-18 16:36:00,
2013-02-18 11:41:00,45.4,33.1,29.85,SSW,201,3.7,10.4,62,0.00,CLR,,0.00,WeatherDisplay:10.37,2013-02-18 16:41:00,
2013-02-18 11:46:00,46.1,33.4,29.84,South,179,8.2,13.8,61,0.00,CLR,,0.00,WeatherDisplay:10.37,2013-02-18 16:46:00,
2013-02-18 11:51:00,46.4,33.7,29.84,SSW,198,5.6,11.5,61,0.00,CLR,,0.00,WeatherDisplay:10.37,2013-02-18 16:51:00,
2013-02-18 11:56:00,46.8,34.0,29.84,South,187,5.6,17.3,61,0.00,CLR,,0.00,WeatherDisplay:10.37,2013-02-18 16:56:00,
2013-02-18 12:02:00,47.4,34.6,29.84,SSW,193,6.0,16.1,61,0.00,CLR,,0.00,WeatherDisplay:10.37,2013-02-18 17:02:00,
2013-02-18 12:07:00,47.4,34.6,29.84,SSW,196,8.9,15.0,61,0.00,CLR,,0.00,WeatherDisplay:10.37,2013-02-18 17:07:00,
2013-02-18 12:12:00,47.9,35.1,29.84,South,171,4.0,11.0,61,0.00,CLR,,0.00,WeatherDisplay:10.37,2013-02-18 17:12:00,
2013-02-18 12:17:00,47.9,35.1,29.83,South,175,4.4,11.5,61,0.00,CLR,,0.00,WeatherDisplay:10.37,2013-02-18 17:17:00,
2013-02-18 12:22:00,47.9,35.1,29.83,SSW,202,5.0,11.5,61,0.00,CLR,,0.00,WeatherDisplay:10.37,2013-02-18 17:22:00,
2013-02-18 12:27:00,48.2,35.0,29.83,South,171,2.5,8.1,60,0.00,CLR,,0.00,WeatherDisplay:10.37,2013-02-18 17:27:00,
2013-02-18 12:32:00,48.3,35.5,29.83,SSW,208,6.5,15.0,61,0.00,CLR,,0.00,WeatherDisplay:10.37,2013-02-18 17:32:00,
2013-02-18 12:37:00,48.5,35.7,29.83,SSW,199,2.8,10.4,61,0.00,CLR,,0.00,WeatherDisplay:10.37,2013-02-18 17:37:00,
2013-02-18 12:42:00,49.1,35.8,29.83,South,190,6.2,11.5,60,0.00,CLR,,0.00,WeatherDisplay:10.37,2013-02-18 17:42:00,
2013-02-18 12:47:00,49.0,36.1,29.82,SSW,194,7.5,23.0,61,0.00,CLR,,0.00,WeatherDisplay:10.37,2013-02-18 17:47:00,
2013-02-18 12:52:00,49.5,36.6,29.82,SSW,200,6.4,16.1,61,0.00,CLR,,0.00,WeatherDisplay:10.37,2013-02-18 17:52:00,
2013-02-18 12:57:00,49.4,36.9,29.82,SSW,204,5.5,10.4,62,0.00,CLR,,0.00,WeatherDisplay:10.37,2013-02-18 17:57:00,
2013-02-18 13:02:00,49.8,36.9,29.81,SSE,165,8.9,19.0,61,0.00,CLR,,0.00,WeatherDisplay:10.37,2013-02-18 18:02:00,
2013-02-18 13:07:00,50.1,37.6,29.81,South,189,5.7,7.0,62,0.00,CLR,,0.00,WeatherDisplay:10.37,2013-02-18 18:07:00,
2013-02-18 13:12:00,50.4,37.4,29.80,SSW,192,4.9,11.5,61,0.00,CLR,,0.00,WeatherDisplay:10.37,2013-02-18 18:12:00,
2013-02-18 13:17:00,50.5,38.0,29.80,SSE,163,5.5,11.5,62,0.00,CLR,,0.00,WeatherDisplay:10.37,2013-02-18 18:17:00,
2013-02-18 13:23:00,50.3,38.2,29.79,South,189,5.7,11.5,63,0.00,CLR,,0.00,WeatherDisplay:10.37,2013-02-18 18:23:00,
2013-02-18 13:28:00,50.5,38.4,29.80,SSE,158,5.8,15.0,63,0.00,CLR,,0.00,WeatherDisplay:10.37,2013-02-18 18:28:00,
2013-02-18 13:33:00,50.6,38.5,29.79,South,190,6.0,12.7,63,0.00,CLR,,0.00,WeatherDisplay:10.37,2013-02-18 18:33:00,
2013-02-18 13:38:00,50.7,38.6,29.79,SSE,166,3.4,5.8,63,0.00,CLR,,0.00,WeatherDisplay:10.37,2013-02-18 18:38:00,
2013-02-18 13:43:00,50.9,38.7,29.79,South,180,5.6,11.5,63,0.00,CLR,,0.00,WeatherDisplay:10.37,2013-02-18 18:43:00,
2013-02-18 13:48:00,51.5,39.3,29.79,South,188,14.0,21.9,63,0.00,CLR,,0.00,WeatherDisplay:10.37,2013-02-18 18:48:00,
2013-02-18 13:53:00,51.9,39.3,29.78,South,189,10.5,20.7,62,0.00,CLR,,0.00,WeatherDisplay:10.37,2013-02-18 18:53:00,
2013-02-18 13:58:00,52.1,39.5,29.78,SSW,197,7.5,16.1,62,0.00,CLR,,0.00,WeatherDisplay:10.37,2013-02-18 18:58:00,
2013-02-18 14:03:00,51.9,39.7,29.78,South,180,8.5,19.6,63,0.00,CLR,,0.00,WeatherDisplay:10.37,2013-02-18 19:03:00,
2013-02-18 14:08:00,52.2,40.0,29.78,SSW,202,9.4,15.0,63,0.00,CLR,,0.00,WeatherDisplay:10.37,2013-02-18 19:08:00,
2013-02-18 14:13:00,52.5,40.3,29.77,SSW,207,3.2,6.9,63,0.00,CLR,,0.00,WeatherDisplay:10.37,2013-02-18 19:13:00,
2013-02-18 14:18:00,52.7,40.0,29.77,SSE,164,9.4,13.8,62,0.00,CLR,,0.00,WeatherDisplay:10.37,2013-02-18 19:18:00,
2013-02-18 14:23:00,52.4,40.6,29.77,South,190,10.7,17.3,64,0.00,CLR,,0.00,WeatherDisplay:10.37,2013-02-18 19:23:00,
2013-02-18 14:28:00,52.7,40.9,29.76,SSE,164,3.2,20.0,64,0.00,CLR,,0.00,WeatherDisplay:10.37,2013-02-18 19:28:00,
2013-02-18 14:33:00,52.8,41.0,29.76,South,174,13.8,24.2,64,0.00,CLR,,0.00,WeatherDisplay:10.37,2013-02-18 19:33:00,
2013-02-18 14:38:00,52.5,41.1,29.76,SW,236,4.3,9.2,65,0.00,CLR,,0.00,WeatherDisplay:10.37,2013-02-18 19:38:00,
2013-02-18 14:43:00,52.1,40.7,29.76,South,188,6.7,15.0,65,0.00,CLR,,0.00,WeatherDisplay:10.37,2013-02-18 19:43:00,
2013-02-18 14:49:00,51.8,40.8,29.75,SSE,167,7.4,17.3,66,0.00,CLR,,0.00,WeatherDisplay:10.37,2013-02-18 19:49:00,
2013-02-18 14:54:00,51.7,41.1,29.75,SSW,194,2.8,6.9,67,0.00,CLR,,0.00,WeatherDisplay:10.37,2013-02-18 19:54:00,
2013-02-18 14:59:00,51.5,40.9,29.75,South,172,2.7,9.0,67,0.00,CLR,,0.00,WeatherDisplay:10.37,2013-02-18 19:59:00,
2013-02-18 15:04:00,51.4,41.2,29.75,SSW,196,2.3,6.9,68,0.00,CLR,,0.00,WeatherDisplay:10.37,2013-02-18 20:04:00,
2013-02-18 15:09:00,51.4,41.6,29.75,SSW,200,0.8,7.0,69,0.00,CLR,,0.00,WeatherDisplay:10.37,2013-02-18 20:09:00,
2013-02-18 15:14:00,51.5,42.0,29.74,South,178,5.9,11.5,70,0.00,CLR,,0.00,WeatherDisplay:10.37,2013-02-18 20:14:00,
2013-02-18 15:19:00,51.5,42.0,29.74,SSW,198,6.3,12.7,70,0.00,CLR,,0.00,WeatherDisplay:10.37,2013-02-18 20:19:00,
2013-02-18 15:24:00,51.4,42.3,29.73,SW,214,3.9,9.2,71,0.00,CLR,,0.00,WeatherDisplay:10.37,2013-02-18 20:24:00,
2013-02-18 15:29:00,51.2,42.5,29.73,SSW,206,1.7,7.0,72,0.00,CLR,,0.00,WeatherDisplay:10.37,2013-02-18 20:29:00,
2013-02-18 15:34:00,51.2,42.5,29.73,South,178,0.9,5.0,72,0.00,CLR,,0.00,WeatherDisplay:10.37,2013-02-18 20:34:00,
2013-02-18 15:39:00,51.2,42.5,29.72,South,183,3.2,11.0,72,0.00,CLR,,0.00,WeatherDisplay:10.37,2013-02-18 20:39:00,
2013-02-18 15:44:00,50.8,42.8,29.72,South,171,3.2,10.4,74,0.00,CLR,,0.00,WeatherDisplay:10.37,2013-02-18 20:44:00,
2013-02-18 15:49:00,50.4,42.8,29.72,South,183,5.5,10.4,75,0.00,CLR,,0.00,WeatherDisplay:10.37,2013-02-18 20:49:00,
2013-02-18 15:54:00,50.4,42.8,29.72,South,180,8.9,11.5,75,0.00,CLR,,0.00,WeatherDisplay:10.37,2013-02-18 20:54:00,
2013-02-18 15:59:00,50.5,42.9,29.71,SSW,198,3.5,11.5,75,0.00,CLR,,0.00,WeatherDisplay:10.37,2013-02-18 20:59:00,
2013-02-18 16:04:00,50.3,43.0,29.71,SSW,200,1.3,16.1,76,0.00,CLR,,0.00,WeatherDisplay:10.37,2013-02-18 21:04:00,
2013-02-18 16:09:00,50.2,42.9,29.70,SSW,195,2.3,10.4,76,0.00,CLR,,0.00,WeatherDisplay:10.37,2013-02-18 21:09:00,
2013-02-18 16:14:00,50.3,43.0,29.70,South,190,1.0,11.5,76,0.00,CLR,,0.00,WeatherDisplay:10.37,2013-02-18 21:14:00,
2013-02-18 16:19:00,50.2,42.9,29.70,South,178,3.7,9.2,76,0.00,CLR,,0.00,WeatherDisplay:10.37,2013-02-18 21:19:00,
2013-02-18 16:24:00,50.1,42.8,29.70,South,184,3.1,5.8,76,0.00,CLR,,0.00,WeatherDisplay:10.37,2013-02-18 21:24:00,
2013-02-18 16:29:00,50.1,42.8,29.70,South,178,5.7,9.2,76,0.00,CLR,,0.00,WeatherDisplay:10.37,2013-02-18 21:29:00,
2013-02-18 16:34:00,50.1,42.8,29.69,SSW,199,1.5,6.9,76,0.00,CLR,,0.00,WeatherDisplay:10.37,2013-02-18 21:34:00,
2013-02-18 16:39:00,50.0,43.1,29.69,SSE,168,2.1,11.5,77,0.00,CLR,,0.00,WeatherDisplay:10.37,2013-02-18 21:39:00,
2013-02-18 16:44:00,49.9,43.0,29.69,SSW,199,1.5,5.0,77,0.00,CLR,,0.00,WeatherDisplay:10.37,2013-02-18 21:44:00,
2013-02-18 16:49:00,49.7,43.1,29.69,South,177,1.7,4.0,78,0.00,CLR,,0.00,WeatherDisplay:10.37,2013-02-18 21:49:00,
2013-02-18 16:54:00,49.6,43.0,29.70,South,186,1.1,10.4,78,0.00,CLR,,0.00,WeatherDisplay:10.37,2013-02-18 21:54:00,
2013-02-18 16:59:00,49.5,43.3,29.69,SW,216,0.1,2.0,79,0.00,CLR,,0.00,WeatherDisplay:10.37,2013-02-18 21:59:00,
2013-02-18 17:04:00,49.4,43.5,29.69,South,179,0.7,3.5,80,0.00,CLR,,0.00,WeatherDisplay:10.37,2013-02-18 22:04:00,
2013-02-18 17:09:00,49.0,43.7,29.69,South,174,0.0,3.5,82,0.00,CLR,,0.00,WeatherDisplay:10.37,2013-02-18 22:09:00,
2013-02-18 17:14:00,48.5,43.9,29.69,South,178,4.0,5.8,84,0.01,RA,,0.01,WeatherDisplay:10.37,2013-02-18 22:14:00,
2013-02-18 17:19:00,48.1,43.8,29.69,SW,234,1.7,11.5,85,0.01,RA,,0.01,WeatherDisplay:10.37,2013-02-18 22:19:00,
2013-02-18 17:24:00,47.9,43.9,29.68,SW,231,1.4,11.5,86,0.01,CLR,,0.01,WeatherDisplay:10.37,2013-02-18 22:24:00,
2013-02-18 17:29:00,47.9,43.9,29.69,South,191,0.9,9.0,86,0.01,CLR,,0.01,WeatherDisplay:10.37,2013-02-18 22:29:00,
2013-02-18 17:34:00,47.8,44.1,29.68,South,178,3.8,5.8,87,0.01,CLR,,0.01,WeatherDisplay:10.37,2013-02-18 22:34:00,
2013-02-18 17:39:00,47.6,43.9,29.68,South,186,1.5,3.0,87,0.01,CLR,,0.01,WeatherDisplay:10.37,2013-02-18 22:39:00,
2013-02-18 17:44:00,47.5,44.1,29.68,SSE,153,1.7,10.4,88,0.02,RA,,0.02,WeatherDisplay:10.37,2013-02-18 22:44:00,
2013-02-18 17:50:00,47.4,44.0,29.68,South,190,5.8,11.5,88,0.02,RA,,0.02,WeatherDisplay:10.37,2013-02-18 22:50:00,
2013-02-18 17:55:00,47.4,44.0,29.68,SSE,166,1.9,4.6,88,0.02,CLR,,0.02,WeatherDisplay:10.37,2013-02-18 22:55:00,
2013-02-18 18:00:00,47.5,44.1,29.67,South,186,3.8,11.5,88,0.02,CLR,,0.02,WeatherDisplay:10.37,2013-02-18 23:00:00,
2013-02-18 18:05:00,47.5,44.1,29.67,SSW,194,2.3,5.8,88,0.02,CLR,,0.02,WeatherDisplay:10.37,2013-02-18 23:05:00,
2013-02-18 18:10:00,47.5,44.1,29.67,SSW,193,1.9,8.1,88,0.02,CLR,,0.02,WeatherDisplay:10.37,2013-02-18 23:10:00,
2013-02-18 18:15:00,47.6,43.9,29.67,South,186,2.5,9.2,87,0.01,CLR,,0.02,WeatherDisplay:10.37,2013-02-18 23:15:00,
2013-02-18 18:20:00,47.6,43.6,29.66,South,171,5.1,12.0,86,0.01,CLR,,0.02,WeatherDisplay:10.37,2013-02-18 23:20:00,
2013-02-18 18:25:00,47.8,43.5,29.66,South,184,5.5,10.4,85,0.01,CLR,,0.02,WeatherDisplay:10.37,2013-02-18 23:25:00,
2013-02-18 18:30:00,48.0,43.4,29.67,SSW,213,3.9,9.2,84,0.01,CLR,,0.02,WeatherDisplay:10.37,2013-02-18 23:30:00,
2013-02-18 18:35:00,47.9,43.0,29.67,SSW,205,2.6,10.4,83,0.01,CLR,,0.02,WeatherDisplay:10.37,2013-02-18 23:35:00,
2013-02-18 18:40:00,48.0,42.8,29.67,SW,219,0.5,4.0,82,0.01,CLR,,0.02,WeatherDisplay:10.37,2013-02-18 23:40:00,
2013-02-18 18:45:00,48.1,42.5,29.66,SSE,163,5.0,12.7,81,0.00,CLR,,0.02,WeatherDisplay:10.37,2013-02-18 23:45:00,
2013-02-18 18:50:00,48.3,42.4,29.66,South,187,5.9,11.5,80,0.00,CLR,,0.02,WeatherDisplay:10.37,2013-02-18 23:50:00,
2013-02-18 18:55:00,48.5,42.0,29.67,SW,222,6.1,17.3,78,0.01,RA,,0.03,WeatherDisplay:10.37,2013-02-18 23:55:00,
2013-02-18 19:00:00,48.3,41.1,29.66,SW,216,10.3,18.4,76,0.01,RA,,0.03,WeatherDisplay:10.37,2013-02-19 00:00:00,
2013-02-18 19:05:00,48.2,41.0,29.65,SSW,205,10.0,25.3,76,0.01,CLR,,0.03,WeatherDisplay:10.37,2013-02-19 00:05:00,
2013-02-18 19:10:00,48.0,40.8,29.65,South,172,5.4,10.4,76,0.01,CLR,,0.03,WeatherDisplay:10.37,2013-02-19 00:10:00,
2013-02-18 19:15:00,47.9,40.7,29.64,South,173,7.7,13.8,76,0.01,CLR,,0.03,WeatherDisplay:10.37,2013-02-19 00:15:00,
2013-02-18 19:20:00,47.8,40.6,29.64,SSW,212,7.5,11.5,76,0.01,CLR,,0.03,WeatherDisplay:10.37,2013-02-19 00:20:00,
2013-02-18 19:25:00,47.7,40.5,29.64,SSW,198,13.0,27.6,76,0.01,CLR,,0.03,WeatherDisplay:10.37,2013-02-19 00:25:00,
2013-02-18 19:30:00,47.7,40.5,29.64,South,181,8.2,15.0,76,0.01,CLR,,0.03,WeatherDisplay:10.37,2013-02-19 00:30:00,
2013-02-18 19:35:00,47.6,40.4,29.63,SSE,166,8.4,11.5,76,0.01,CLR,,0.03,WeatherDisplay:10.37,2013-02-19 00:35:00,
2013-02-18 19:40:00,47.6,40.4,29.63,South,183,4.8,11.5,76,0.01,CLR,,0.03,WeatherDisplay:10.37,2013-02-19 00:40:00,
2013-02-18 19:45:00,47.5,40.3,29.63,SSE,154,1.5,9.0,76,0.01,CLR,,0.03,WeatherDisplay:10.37,2013-02-19 00:45:00,
2013-02-18 19:50:00,47.6,40.4,29.63,SSW,195,8.3,18.4,76,0.01,CLR,,0.03,WeatherDisplay:10.37,2013-02-19 00:50:00,
2013-02-18 19:55:00,47.4,40.2,29.62,South,181,6.0,14.0,76,0.00,CLR,CLR,0.03,WeatherDisplay:10.37,2013-02-19 00:55:00,
2013-02-18 20:00:00,47.4,40.2,29.62,SSE,159,10.6,18.4,76,0.00,CLR,,0.03,WeatherDisplay:10.37,2013-02-19 01:00:00,
2013-02-18 20:05:00,47.3,40.2,29.62,South,177,9.0,20.0,76,0.00,CLR,CLR,0.03,WeatherDisplay:10.37,2013-02-19 01:05:00,
2013-02-18 20:10:00,47.3,40.5,29.62,South,180,9.0,13.8,77,0.00,CLR,,0.03,WeatherDisplay:10.37,2013-02-19 01:10:00,
2013-02-18 20:15:00,47.4,40.2,29.61,South,177,10.0,21.0,76,0.00,CLR,CLR,0.03,WeatherDisplay:10.37,2013-02-19 01:15:00,
2013-02-18 20:20:00,47.6,40.4,29.61,SW,219,6.9,21.9,76,0.00,CLR,,0.03,WeatherDisplay:10.37,2013-02-19 01:20:00,
2013-02-18 20:25:00,47.6,40.1,29.61,South,169,7.6,12.7,75,0.00,CLR,,0.03,WeatherDisplay:10.37,2013-02-19 01:25:00,
2013-02-18 20:30:00,47.5,40.3,29.60,South,182,10.0,18.0,76,0.00,CLR,CLR,0.03,WeatherDisplay:10.37,2013-02-19 01:30:00,
2013-02-18 20:35:00,47.5,40.3,29.60,South,186,16.8,19.0,76,0.00,CLR,,0.03,WeatherDisplay:10.37,2013-02-19 01:35:00,
2013-02-18 20:40:00,47.3,40.5,29.60,SSW,194,7.5,13.8,77,0.00,CLR,,0.03,WeatherDisplay:10.37,2013-02-19 01:40:00,
2013-02-18 20:45:00,46.9,41.0,29.60,South,184,9.0,21.0,80,0.00,CLR,CLR,0.03,WeatherDisplay:10.37,2013-02-19 01:45:00,
2013-02-18 20:50:00,46.3,41.1,29.60,SSE,165,5.2,18.4,82,0.00,CLR,,0.03,WeatherDisplay:10.37,2013-02-19 01:50:00,
2013-02-18 20:55:00,46.1,40.9,29.60,South,184,5.0,17.0,82,0.00,CLR,CLR,0.03,WeatherDisplay:10.37,2013-02-19 01:55:00,
2013-02-18 21:00:00,45.9,41.0,29.59,SW,215,5.6,16.1,83,0.00,CLR,,0.04,WeatherDisplay:10.37,2013-02-19 02:00:00,
2013-02-18 21:06:00,45.5,41.3,29.59,South,172,4.5,13.8,85,0.02,RA,,0.05,WeatherDisplay:10.37,2013-02-19 02:06:00,
2013-02-18 21:11:00,45.2,41.3,29.59,SSE,165,5.3,10.4,86,0.03,RA,,0.06,WeatherDisplay:10.37,2013-02-19 02:11:00,
2013-02-18 21:16:00,45.3,41.1,29.58,SSE,165,8.7,16.1,85,0.03,RA,,0.06,WeatherDisplay:10.37,2013-02-19 02:16:00,
2013-02-18 21:21:00,45.3,41.4,29.58,SSW,202,5.3,11.5,86,0.04,RA,,0.07,WeatherDisplay:10.37,2013-02-19 02:21:00,
2013-02-18 21:26:00,45.0,41.4,29.58,SSE,161,6.4,15.0,87,0.05,RA,,0.08,WeatherDisplay:10.37,2013-02-19 02:26:00,
2013-02-18 21:31:00,44.9,41.3,29.58,SSW,195,9.6,15.0,87,0.05,RA,,0.08,WeatherDisplay:10.37,2013-02-19 02:31:00,
2013-02-18 21:36:00,44.8,41.5,29.57,SSE,161,9.5,16.1,88,0.05,,,0.08,WeatherDisplay:10.37,2013-02-19 02:36:00,
2013-02-18 21:41:00,44.7,41.4,29.56,SSE,160,10.4,16.1,88,0.05,CLR,,0.08,WeatherDisplay:10.37,2013-02-19 02:41:00,
2013-02-18 21:46:00,44.9,41.6,29.56,SSW,200,8.6,19.6,88,0.05,CLR,,0.08,WeatherDisplay:10.37,2013-02-19 02:46:00,
2013-02-18 21:51:00,45.0,41.4,29.55,SSE,165,14.6,23.0,87,0.06,RA,,0.09,WeatherDisplay:10.37,2013-02-19 02:51:00,
2013-02-18 21:56:00,45.3,41.4,29.54,South,191,11.2,20.7,86,0.06,RA,,0.09,WeatherDisplay:10.37,2013-02-19 02:56:00,
2013-02-18 22:02:00,45.1,41.2,29.55,South,178,5.7,15.0,86,0.05,CLR,,0.09,WeatherDisplay:10.37,2013-02-19 03:02:00,
2013-02-18 22:07:00,45.0,41.4,29.54,SSE,164,9.5,16.1,87,0.04,CLR,,0.09,WeatherDisplay:10.37,2013-02-19 03:07:00,
2013-02-18 22:12:00,45.0,41.4,29.54,South,175,12.8,25.3,87,0.03,CLR,,0.09,WeatherDisplay:10.37,2013-02-19 03:12:00,
2013-02-18 22:18:00,45.0,41.4,29.54,South,178,8.8,17.3,87,0.03,CLR,,0.09,WeatherDisplay:10.37,2013-02-19 03:18:00,
2013-02-18 22:23:00,44.9,41.6,29.54,SSE,156,11.8,23.0,88,0.02,CLR,,0.09,WeatherDisplay:10.37,2013-02-19 03:23:00,
2013-02-18 22:28:00,44.9,41.6,29.54,SSE,167,9.6,24.2,88,0.02,RA,,0.10,WeatherDisplay:10.37,2013-02-19 03:28:00,
2013-02-18 22:33:00,45.0,41.7,29.54,South,169,7.7,19.6,88,0.02,RA,,0.10,WeatherDisplay:10.37,2013-02-19 03:33:00,
2013-02-18 22:38:00,44.9,41.9,29.53,South,172,8.7,19.6,89,0.02,CLR,,0.10,WeatherDisplay:10.37,2013-02-19 03:38:00,
2013-02-18 22:43:00,45.0,42.0,29.53,South,180,10.5,15.0,89,0.02,CLR,,0.10,WeatherDisplay:10.37,2013-02-19 03:43:00,
2013-02-18 22:48:00,45.0,42.0,29.53,SSW,198,11.3,25.0,89,0.01,CLR,,0.10,WeatherDisplay:10.37,2013-02-19 03:48:00,
2013-02-18 22:53:00,45.0,42.0,29.52,South,178,11.2,19.6,89,0.01,CLR,,0.10,WeatherDisplay:10.37,2013-02-19 03:53:00,
2013-02-18 22:58:00,44.9,41.9,29.52,SSE,168,8.0,19.6,89,0.01,CLR,,0.10,WeatherDisplay:10.37,2013-02-19 03:58:00,
2013-02-18 23:03:00,44.9,41.9,29.52,South,180,12.9,17.3,89,0.01,CLR,,0.10,WeatherDisplay:10.37,2013-02-19 04:03:00,
2013-02-18 23:08:00,44.9,41.9,29.51,South,184,9.9,24.2,89,0.02,RA,,0.11,WeatherDisplay:10.37,2013-02-19 04:08:00,
2013-02-18 23:13:00,45.0,42.2,29.51,SSE,162,12.4,25.3,90,0.02,RA,,0.11,WeatherDisplay:10.37,2013-02-19 04:13:00,
2013-02-18 23:18:00,45.0,42.0,29.51,SSW,202,12.5,24.2,89,0.02,,,0.11,WeatherDisplay:10.37,2013-02-19 04:18:00,
2013-02-18 23:23:00,45.0,42.0,29.50,South,182,16.2,28.8,89,0.02,CLR,,0.11,WeatherDisplay:10.37,2013-02-19 04:23:00,
2013-02-18 23:28:00,45.1,41.8,29.50,South,187,16.0,25.3,88,0.01,CLR,,0.11,WeatherDisplay:10.37,2013-02-19 04:28:00,
2013-02-18 23:33:00,45.1,41.8,29.50,South,175,16.8,26.5,88,0.01,CLR,,0.11,WeatherDisplay:10.37,2013-02-19 04:33:00,
2013-02-18 23:38:00,45.1,41.8,29.50,South,182,8.8,19.6,88,0.02,RA,,0.12,WeatherDisplay:10.37,2013-02-19 04:38:00,
2013-02-18 23:43:00,45.1,41.8,29.49,South,182,11.9,29.9,88,0.02,RA,,0.12,WeatherDisplay:10.37,2013-02-19 04:43:00,
2013-02-18 23:49:00,45.0,42.0,29.49,South,175,10.6,21.9,89,0.02,,,0.13,WeatherDisplay:10.37,2013-02-19 04:49:00,
2013-02-18 23:54:00,45.0,42.0,29.49,SSE,163,16.6,28.8,89,0.03,RA,,0.13,WeatherDisplay:10.37,2013-02-19 04:54:00,
2013-02-18 23:59:00,45.0,42.0,29.48,South,185,10.4,17.3,89,0.04,RA,,0.14,WeatherDisplay:10.37,2013-02-19 04:59:00,